GW1008 Weather Reports


Display with metric or nautical units.
time (UTC)temp
F
wind
direction
speed
MPH
gust
MPH
rain 1hr
in
rain 24hr
in
rain mn
in
humidity
%
barometer
mb
20260905160044 61 0 0.0 10.0 0.00 0.00 0.00 64 1019.2
20260905155518 61 292 3.0 10.0 0.00 0.00 0.00 63 1019.1
20260905155018 61 0 0.0 9.0 0.00 0.00 0.00 64 1019.1
20260905154549 61 276 2.0 9.0 0.00 0.00 0.00 63 1019.0
20260905154016 62 0 0.0 10.0 0.00 0.00 0.00 63 1018.9
20260905153519 62 0 0.0 10.0 0.00 0.00 0.00 62 1018.9
20260905153034 62 0 1.0 11.0 0.00 0.00 0.00 61 1019.0
20260905152518 62 277 1.0 11.0 0.00 0.00 0.00 61 1018.9
20260905152018 63 292 1.0 11.0 0.00 0.00 0.00 61 1018.9
20260905151537 63 0 0.0 10.0 0.00 0.00 0.00 61 1018.8
20260905151019 63 0 1.0 12.0 0.00 0.00 0.00 60 1018.7
20260905150520 63 286 2.0 12.0 0.00 0.00 0.00 59 1018.9
20260905150033 63 0 1.0 10.0 0.00 0.00 0.00 59 1018.8
20260905145519 63 0 1.0 10.0 0.00 0.00 0.00 57 1018.8
20260905145021 64 236 0.0 12.0 0.00 0.00 0.00 56 1018.8
20260905144543 64 0 0.0 12.0 0.00 0.00 0.00 58 1018.8
20260905144015 64 0 2.0 12.0 0.00 0.00 0.00 56 1018.9
20260905143518 63 288 2.0 12.0 0.00 0.00 0.00 57 1018.9
20260905143034 64 298 1.0 11.0 0.00 0.00 0.00 54 1018.7
20260905142516 65 0 1.0 17.0 0.00 0.00 0.00 52 1018.7
20260905142019 65 281 4.0 17.0 0.00 0.00 0.00 52 1018.7
20260905141534 65 299 2.0 17.0 0.00 0.00 0.00 52 1018.6
20260905141018 64 0 2.0 16.0 0.00 0.00 0.00 53 1018.5
20260905140518 64 0 1.0 15.0 0.00 0.00 0.00 53 1018.5
20260905140038 64 317 1.0 14.0 0.00 0.00 0.00 53 1018.5
20260905135520 63 341 2.0 12.0 0.00 0.00 0.00 54 1018.5
20260905135019 62 0 3.0 14.0 0.00 0.00 0.00 55 1018.5
20260905134534 62 288 2.0 14.0 0.00 0.00 0.00 53 1018.5
20260905134016 63 0 2.0 12.0 0.00 0.00 0.00 52 1018.5
20260905133519 63 284 2.0 12.0 0.00 0.00 0.00 53 1018.5
20260905133034 63 0 0.0 10.0 0.00 0.00 0.00 53 1018.4
20260905132516 63 0 3.0 12.0 0.00 0.00 0.00 52 1018.3
20260905132019 64 286 2.0 16.0 0.00 0.00 0.00 50 1018.3
20260905131533 64 266 3.0 16.0 0.00 0.00 0.00 50 1018.4
20260905131016 65 273 2.0 11.0 0.00 0.00 0.00 50 1018.3
20260905130520 65 0 2.0 15.0 0.00 0.00 0.00 49 1018.1
20260905130033 66 294 2.0 15.0 0.00 0.00 0.00 50 1017.9
20260905125516 66 265 6.0 15.0 0.00 0.00 0.00 47 1017.9
20260905125016 67 290 4.0 15.0 0.00 0.00 0.00 48 1017.9
20260905124543 66 269 3.0 12.0 0.00 0.00 0.00 49 1018.1
20260905124021 66 296 0.0 14.0 0.00 0.00 0.00 51 1017.9
20260905123517 66 343 2.0 15.0 0.00 0.00 0.00 51 1018.1
20260905123035 66 324 4.0 15.0 0.00 0.00 0.00 50 1017.9
20260905122520 65 276 2.0 13.0 0.00 0.00 0.00 50 1018.0
20260905122016 65 360 2.0 13.0 0.00 0.00 0.00 51 1018.0
20260905121531 65 0 0.0 9.0 0.00 0.00 0.00 54 1017.8
20260905121016 64 0 0.0 10.0 0.00 0.00 0.00 54 1017.7
20260905120518 64 0 0.0 17.0 0.00 0.00 0.00 52 1017.7
20260905120033 64 0 0.0 17.0 0.00 0.00 0.00 55 1017.5
20260905115520 64 294 2.0 14.0 0.00 0.00 0.00 53 1017.3
20260905115019 63 0 0.0 12.0 0.00 0.00 0.00 54 1017.2
20260905114534 63 0 1.0 12.0 0.00 0.00 0.00 53 1017.1
20260905114017 62 309 2.0 15.0 0.00 0.00 0.00 52 1017.2
20260905113522 63 292 3.0 15.0 0.00 0.00 0.00 51 1017.1
20260905113036 63 283 3.0 14.0 0.00 0.00 0.00 51 1016.8
20260905112518 63 290 2.0 13.0 0.00 0.00 0.00 51 1016.7
20260905112016 62 293 1.0 16.0 0.00 0.00 0.00 54 1016.6
20260905111534 61 0 1.0 16.0 0.00 0.00 0.00 56 1016.6
20260905111018 61 0 3.0 23.0 0.00 0.00 0.00 55 1016.6
20260905110520 61 282 2.0 23.0 0.00 0.00 0.00 54 1016.6
20260905110033 62 315 5.0 23.0 0.00 0.00 0.00 53 1016.4
20260905105518 62 309 5.0 18.0 0.00 0.00 0.00 56 1016.3
20260905105020 61 269 4.0 18.0 0.00 0.00 0.00 55 1016.2
20260905104541 61 0 2.0 17.0 0.00 0.00 0.00 57 1016.2
20260905104020 61 284 5.0 17.0 0.00 0.00 0.00 57 1016.1
20260905103515 61 360 4.0 15.0 0.00 0.00 0.00 56 1016.0
20260905103035 61 283 3.0 15.0 0.00 0.00 0.00 58 1015.9
20260905102519 61 298 5.0 18.0 0.00 0.00 0.00 56 1015.8
20260905102018 61 311 5.0 18.0 0.00 0.00 0.00 58 1015.8
20260905101539 61 294 3.0 13.0 0.00 0.00 0.00 57 1015.7
20260905101018 61 0 3.0 12.0 0.00 0.00 0.00 57 1015.6
20260905100516 61 314 3.0 17.0 0.00 0.00 0.00 57 1015.5
20260905100036 61 277 4.0 18.0 0.00 0.00 0.00 57 1015.5
20260905095517 61 225 4.0 18.0 0.00 0.00 0.00 58 1015.3
20260905095018 60 346 5.0 19.0 0.00 0.00 0.00 57 1015.3
20260905094547 60 267 6.0 19.0 0.00 0.00 0.00 57 1015.2
20260905094015 60 288 3.0 16.0 0.00 0.00 0.00 59 1015.4
20260905093515 60 333 5.0 20.0 0.00 0.00 0.00 57 1015.3
20260905093042 59 276 6.0 20.0 0.00 0.00 0.00 59 1015.3
20260905092519 59 298 9.0 20.0 0.00 0.00 0.00 58 1015.3
20260905092016 60 277 10.0 20.0 0.00 0.00 0.00 57 1015.1
20260905091535 60 317 8.0 17.0 0.00 0.00 0.00 58 1015.3
20260905091017 59 276 6.0 17.0 0.00 0.00 0.00 59 1015.1
20260905090519 59 304 3.0 19.0 0.00 0.00 0.00 61 1015.0
20260905090034 59 0 5.0 19.0 0.00 0.00 0.00 61 1014.8
20260905085517 58 17 3.0 19.0 0.00 0.00 0.00 63 1014.8
20260905085021 58 294 5.0 23.0 0.00 0.00 0.00 63 1014.7
20260905084540 57 0 4.0 23.0 0.00 0.00 0.00 65 1014.6
20260905084015 57 0 6.0 22.0 0.00 0.00 0.00 64 1014.6
20260905083515 57 280 8.0 19.0 0.00 0.00 0.00 64 1014.3
20260905083031 56 275 7.0 18.0 0.00 0.00 0.00 65 1014.2
20260905082516 56 279 3.0 16.0 0.00 0.00 0.00 67 1014.4
20260905082019 55 0 7.0 16.0 0.00 0.00 0.00 66 1014.2
20260905081534 55 288 4.0 16.0 0.00 0.00 0.00 66 1014.2
20260905081020 56 311 6.0 16.0 0.00 0.00 0.00 65 1014.2
20260905080520 56 284 5.0 21.0 0.00 0.00 0.00 64 1014.1
20260905080050 56 0 7.0 21.0 0.00 0.00 0.00 63 1013.9
20260905075517 56 24 9.0 21.0 0.00 0.00 0.00 63 1013.8
20260905075017 56 290 3.0 19.0 0.00 0.00 0.00 64 1013.8
20260905074533 56 290 3.0 14.0 0.00 0.00 0.00 65 1013.6
20260905074017 55 305 5.0 14.0 0.00 0.00 0.00 64 1013.5
20260905073517 55 285 4.0 13.0 0.00 0.00 0.00 65 1013.4
20260905073040 55 309 7.0 17.0 0.00 0.00 0.00 65 1013.3
20260905072516 55 295 7.0 17.0 0.00 0.00 0.00 65 1013.2
20260905072016 55 292 6.0 17.0 0.00 0.00 0.00 65 1013.3
20260905071533 54 289 7.0 17.0 0.00 0.00 0.00 65 1013.2
20260905071016 54 280 6.0 18.0 0.00 0.00 0.00 65 1013.1
20260905070519 54 292 4.0 18.0 0.00 0.00 0.00 65 1013.0
20260905070043 54 291 2.0 11.0 0.00 0.00 0.00 66 1013.0
20260905065519 54 284 5.0 17.0 0.00 0.00 0.00 66 1012.8
20260905065015 53 0 5.0 17.0 0.00 0.00 0.00 66 1012.8
20260905064532 53 299 5.0 17.0 0.00 0.00 0.00 66 1012.7
20260905064016 53 285 5.0 15.0 0.00 0.00 0.00 67 1012.5
20260905063520 53 293 8.0 17.0 0.00 0.00 0.00 67 1012.3
20260905063033 52 273 8.0 19.0 0.00 0.00 0.00 67 1012.2
20260905062513 52 288 8.0 19.0 0.00 0.00 0.00 68 1012.0
20260905062018 52 272 9.0 22.0 0.00 0.00 0.00 69 1011.9
20260905061550 51 315 11.0 22.0 0.00 0.00 0.00 69 1011.7
20260905061019 51 283 8.0 18.0 0.00 0.00 0.00 70 1011.8
20260905060515 51 290 8.0 21.0 0.00 0.00 0.00 70 1011.9
20260905060033 51 297 9.0 21.0 0.00 0.00 0.00 71 1011.7
20260905055516 51 246 8.0 21.0 0.00 0.00 0.00 71 1011.7
20260905055018 51 270 8.0 16.0 0.00 0.00 0.00 71 1011.6
20260905054531 51 289 7.0 18.0 0.00 0.00 0.00 72 1011.6
20260905054015 51 319 6.0 18.0 0.00 0.00 0.00 72 1011.5
20260905053517 51 268 6.0 18.0 0.00 0.00 0.00 72 1011.4
20260905053031 51 0 5.0 17.0 0.00 0.00 0.00 72 1011.4
20260905052517 51 271 10.0 17.0 0.00 0.00 0.00 72 1011.2
20260905052018 51 271 9.0 20.0 0.00 0.00 0.00 72 1011.2
20260905051541 51 281 9.0 20.0 0.00 0.00 0.00 72 1011.1
20260905051017 51 294 8.0 14.0 0.00 0.00 0.00 73 1011.1
20260905050517 52 270 6.0 14.0 0.00 0.00 0.00 73 1011.0
20260905050034 52 292 4.0 14.0 0.00 0.00 0.00 74 1011.0
20260905045518 52 302 2.0 13.0 0.00 0.00 0.00 74 1011.0
20260905045018 52 300 4.0 14.0 0.00 0.00 0.00 74 1011.0
20260905044533 52 303 3.0 14.0 0.00 0.00 0.00 74 1011.0
20260905044019 52 288 0.0 12.0 0.00 0.00 0.00 75 1011.0
20260905043518 52 284 1.0 9.0 0.00 0.00 0.00 75 1010.8
20260905043057 52 0 2.0 9.0 0.00 0.00 0.00 75 1010.8
20260905042518 52 0 2.0 12.0 0.00 0.00 0.00 75 1010.7
20260905042017 52 0 1.0 12.0 0.00 0.00 0.00 75 1010.7
20260905041531 52 228 0.0 10.0 0.00 0.00 0.00 75 1010.6
20260905041015 52 290 4.0 10.0 0.00 0.00 0.00 76 1010.5
20260905040514 52 0 1.0 11.0 0.00 0.00 0.00 76 1010.5
20260905040036 52 317 2.0 13.0 0.00 0.00 0.00 75 1010.4
20260905035515 52 279 5.0 17.0 0.00 0.00 0.00 75 1010.3
20260905035015 52 271 5.0 17.0 0.00 0.00 0.00 75 1010.1
20260905034534 52 296 3.0 16.0 0.00 0.00 0.00 74 1010.0
20260905034016 52 286 5.0 16.0 0.00 0.00 0.00 74 1009.9
20260905033516 52 300 7.0 19.0 0.00 0.00 0.00 74 1009.8
20260905033038 52 0 10.0 19.0 0.00 0.00 0.00 73 1009.8
20260905032517 52 276 7.0 19.0 0.00 0.00 0.00 73 1009.6
20260905032022 52 288 7.0 19.0 0.00 0.00 0.00 73 1009.5
20260905031534 52 269 7.0 19.0 0.00 0.00 0.00 73 1009.5
20260905031018 52 293 7.0 19.0 0.00 0.00 0.00 73 1009.5
20260905030516 52 294 8.0 26.0 0.00 0.00 0.00 73 1009.4
20260905030036 52 294 9.0 26.0 0.00 0.00 0.00 73 1009.3
20260905025517 52 291 7.0 17.0 0.00 0.00 0.00 73 1009.2
20260905025019 52 300 7.0 17.0 0.00 0.00 0.00 74 1009.2
20260905024534 52 295 8.0 17.0 0.00 0.00 0.00 74 1009.1
20260905024020 52 292 7.0 17.0 0.00 0.00 0.00 74 1009.0
20260905023518 52 279 10.0 19.0 0.00 0.00 0.00 74 1009.0
20260905023039 52 292 9.0 19.0 0.00 0.00 0.00 74 1008.9
20260905022521 53 286 7.0 17.0 0.00 0.00 0.00 74 1008.7
20260905022016 53 289 9.0 17.0 0.00 0.00 0.00 74 1008.7
20260905021536 53 285 6.0 17.0 0.00 0.00 0.00 74 1008.6
20260905021016 53 321 6.0 18.0 0.00 0.00 0.00 74 1008.6
20260905020515 53 279 6.0 18.0 0.00 0.00 0.00 73 1008.6
20260905020032 53 294 8.0 18.0 0.00 0.00 0.00 73 1008.5
20260905015517 53 261 7.0 17.0 0.00 0.00 0.00 73 1008.5
20260905015018 53 317 7.0 17.0 0.00 0.00 0.00 73 1008.3
20260905014536 53 275 7.0 21.0 0.00 0.00 0.00 73 1008.2
20260905014016 53 0 7.0 21.0 0.00 0.00 0.00 73 1008.1
20260905013519 53 277 7.0 19.0 0.00 0.00 0.00 73 1008.0
20260905013034 53 289 8.0 19.0 0.00 0.00 0.00 73 1007.9
20260905012516 53 290 7.0 19.0 0.00 0.00 0.00 73 1008.0
20260905012017 53 302 9.0 18.0 0.00 0.00 0.00 73 1007.8
20260905011534 53 279 8.0 18.0 0.00 0.00 0.00 73 1007.8
20260905011016 53 275 9.0 20.0 0.00 0.00 0.00 73 1007.6
20260905010518 53 297 8.0 20.0 0.00 0.00 0.00 73 1007.7
20260905010032 53 297 9.0 20.0 0.00 0.00 0.00 72 1007.5
20260905005518 53 221 8.0 21.0 0.00 0.00 0.00 72 1007.4
20260905005016 53 247 11.0 21.0 0.00 0.00 0.00 72 1007.3
20260905004534 53 270 9.0 18.0 0.00 0.00 0.00 72 1007.3
20260905004015 53 305 8.0 18.0 0.00 0.00 0.00 72 1007.2
20260905003519 53 0 4.0 16.0 0.00 0.00 0.00 72 1007.1
20260905003031 53 291 9.0 16.0 0.00 0.00 0.00 72 1007.1
20260905002515 53 291 6.0 18.0 0.00 0.00 0.00 72 1007.0
20260905002016 53 307 6.0 18.0 0.00 0.00 0.00 72 1007.1
20260905001536 53 304 7.0 17.0 0.00 0.00 0.00 72 1007.0
20260905001016 53 305 8.0 16.0 0.00 0.00 0.00 73 1006.8
20260905000518 53 295 7.0 16.0 0.00 0.00 0.00 73 1006.7
20260905000036 53 291 6.0 16.0 0.00 0.00 0.00 72 1006.6
20260904235520 53 279 7.0 16.0 0.00 0.00 0.00 72 1006.6
20260904235014 53 300 8.0 17.0 0.00 0.00 0.00 72 1006.4
20260904234544 53 287 8.0 18.0 0.00 0.00 0.00 72 1006.5
20260904234023 53 299 9.0 18.0 0.00 0.00 0.00 72 1006.4
20260904233518 53 276 8.0 20.0 0.00 0.00 0.00 72 1006.3
20260904233033 54 306 7.0 20.0 0.00 0.00 0.00 72 1006.2
20260904232516 54 283 10.0 20.0 0.00 0.00 0.00 71 1006.3
20260904232017 54 249 8.0 20.0 0.00 0.00 0.00 72 1006.2
20260904231531 54 277 7.0 20.0 0.00 0.00 0.00 72 1006.2
20260904231015 54 292 10.0 19.0 0.00 0.00 0.00 72 1006.2
20260904230516 54 341 9.0 19.0 0.00 0.00 0.00 72 1006.2
20260904230033 54 282 9.0 15.0 0.00 0.00 0.00 73 1006.2
20260904225522 54 282 4.0 17.0 0.00 0.00 0.00 73 1006.5
20260904225017 54 258 4.0 17.0 0.00 0.00 0.00 73 1006.4
20260904224539 54 300 5.0 14.0 0.00 0.00 0.00 73 1006.5
20260904224014 54 303 4.0 14.0 0.00 0.00 0.00 73 1006.4
20260904223516 54 316 4.0 14.0 0.00 0.00 0.00 73 1006.3
20260904223033 54 0 4.0 13.0 0.00 0.00 0.00 73 1006.2
20260904222519 54 287 1.0 13.0 0.00 0.00 0.00 73 1006.0
20260904222016 54 0 2.0 13.0 0.00 0.00 0.00 73 1006.1
20260904221532 54 298 4.0 15.0 0.00 0.00 0.00 73 1005.9
20260904221018 54 293 3.0 15.0 0.00 0.00 0.00 73 1005.9
20260904220518 54 284 5.0 16.0 0.00 0.00 0.00 73 1005.5
20260904220054 55 302 5.0 17.0 0.00 0.00 0.00 73 1005.4
20260904215518 55 269 7.0 17.0 0.00 0.00 0.00 73 1005.4
20260904215017 55 275 5.0 16.0 0.00 0.00 0.00 73 1005.2
20260904214537 55 249 4.0 16.0 0.00 0.00 0.00 73 1005.1
20260904214018 55 306 4.0 15.0 0.00 0.00 0.00 73 1005.2
20260904213518 55 327 4.0 16.0 0.00 0.00 0.00 72 1005.1
20260904213034 55 304 3.0 17.0 0.00 0.00 0.00 72 1005.0
20260904212519 55 274 6.0 17.0 0.00 0.00 0.00 72 1005.0
20260904212018 55 0 8.0 17.0 0.00 0.00 0.00 72 1005.0
20260904211537 55 291 5.0 13.0 0.00 0.00 0.00 72 1005.0
20260904211019 55 0 3.0 21.0 0.00 0.00 0.00 71 1005.2
20260904210516 55 284 4.0 21.0 0.00 0.00 0.00 71 1005.0
20260904210044 55 286 7.0 15.0 0.00 0.00 0.00 71 1005.2
20260904205519 55 295 3.0 13.0 0.00 0.00 0.00 71 1005.3
20260904205018 55 0 2.0 13.0 0.00 0.00 0.00 71 1005.4
20260904204535 55 280 0.0 11.0 0.00 0.00 0.00 71 1005.5
20260904204017 55 293 1.0 9.0 0.00 0.00 0.00 71 1005.5
20260904203519 55 0 0.0 7.0 0.00 0.00 0.00 71 1005.5
20260904203044 54 0 0.0 4.0 0.00 0.00 0.00 71 1005.5
20260904202516 54 0 0.0 4.0 0.00 0.00 0.00 71 1005.3
20260904202019 54 0 0.0 6.0 0.00 0.00 0.00 71 1005.4
20260904201536 54 0 0.0 6.0 0.00 0.00 0.00 71 1005.3
20260904201017 54 0 0.0 3.0 0.00 0.00 0.00 71 1005.3
20260904200517 54 0 0.0 7.0 0.00 0.00 0.00 71 1005.2
20260904200034 54 0 0.0 7.0 0.00 0.00 0.00 71 1005.2
20260904195516 54 0 0.0 9.0 0.00 0.00 0.00 71 1005.1
20260904195019 54 0 0.0 9.0 0.00 0.00 0.00 70 1005.1
20260904194536 54 0 0.0 10.0 0.00 0.00 0.00 70 1004.9
20260904194018 54 0 1.0 11.0 0.00 0.00 0.00 69 1004.8
20260904193517 55 0 0.0 11.0 0.00 0.00 0.00 69 1004.6
20260904193034 55 0 3.0 12.0 0.00 0.00 0.00 68 1004.7
20260904192516 55 0 0.0 13.0 0.00 0.00 0.00 68 1004.6
20260904192015 55 240 2.0 13.0 0.00 0.00 0.00 68 1004.4
20260904191543 55 0 0.0 8.0 0.00 0.00 0.00 68 1004.4
20260904191015 55 0 0.0 11.0 0.00 0.00 0.00 67 1004.4
20260904190515 56 276 0.0 11.0 0.00 0.00 0.00 67 1004.2
20260904190040 56 0 1.0 15.0 0.00 0.00 0.00 66 1004.2
20260904185516 56 0 3.0 15.0 0.00 0.00 0.00 67 1004.2
20260904185018 56 310 1.0 13.0 0.00 0.00 0.00 66 1003.9
20260904184541 56 288 1.0 11.0 0.00 0.00 0.00 66 1003.8
20260904184016 56 0 0.0 12.0 0.00 0.00 0.00 66 1003.7
20260904183516 57 0 0.0 12.0 0.00 0.00 0.00 66 1003.8
20260904183034 57 233 0.0 9.0 0.00 0.00 0.00 65 1003.7
20260904182515 57 283 0.0 11.0 0.00 0.00 0.00 65 1003.6
20260904182027 57 0 0.0 11.0 0.00 0.00 0.00 64 1003.4
20260904181536 58 299 2.0 12.0 0.00 0.00 0.00 63 1003.3
20260904181018 58 0 2.0 12.0 0.00 0.00 0.00 63 1003.3
20260904180518 58 281 4.0 12.0 0.00 0.00 0.00 62 1003.1
20260904180033 59 0 2.0 17.0 0.00 0.00 0.00 62 1003.1
20260904175517 59 0 3.0 17.0 0.00 0.00 0.00 62 1002.9
20260904175015 59 272 1.0 18.0 0.00 0.00 0.00 62 1002.8
20260904174537 59 272 5.0 18.0 0.00 0.00 0.00 62 1002.8
20260904174018 60 281 4.0 19.0 0.00 0.00 0.00 62 1002.6
20260904173516 60 321 5.0 19.0 0.00 0.00 0.00 61 1002.6
20260904173041 60 288 7.0 19.0 0.00 0.00 0.00 61 1002.6
20260904172516 60 295 4.0 19.0 0.00 0.00 0.00 61 1002.6
20260904172017 60 274 5.0 15.0 0.00 0.00 0.00 62 1002.6
20260904171531 60 0 8.0 14.0 0.00 0.00 0.00 62 1002.4
20260904171015 60 245 3.0 16.0 0.00 0.00 0.00 64 1002.4
20260904170519 60 287 4.0 16.0 0.00 0.00 0.00 63 1002.3
20260904170043 60 292 9.0 18.0 0.00 0.00 0.00 63 1002.2
20260904165518 60 293 6.0 21.0 0.00 0.00 0.00 63 1002.2
20260904165015 60 298 6.0 21.0 0.00 0.00 0.00 63 1002.1
20260904164533 60 292 9.0 21.0 0.00 0.00 0.00 62 1001.9
20260904164015 60 286 7.0 17.0 0.00 0.00 0.00 62 1002.0
20260904163516 60 263 4.0 17.0 0.00 0.00 0.00 63 1001.9
20260904163035 61 291 6.0 20.0 0.00 0.00 0.00 61 1001.9
20260904162520 61 303 5.0 28.0 0.00 0.00 0.00 61 1001.7
20260904162020 61 339 7.0 28.0 0.00 0.00 0.00 61 1001.7
20260904161534 61 300 6.0 19.0 0.00 0.00 0.00 61 1001.6
20260904161016 61 272 4.0 20.0 0.00 0.00 0.00 61 1001.6
20260904160521 61 0 4.0 20.0 0.00 0.00 0.00 59 1001.7